Location: Chequamegon National Forest
(46.1070°N, 90.8420°W)
Time: 23:39:48
(UTC-06:00)

Amateur Radio Satellites - All Passes

Search period start: 08 February 2016 23:09
Search period end: 09 February 2016 23:09
Location: Chequamegon National Forest, 46.1070°N, 90.8420°W

Satellite Date Start Highest point End Downlink Frequencies (MHz)
Time Altitude Azimuth
DX 1 08 Feb 23:10:43 23:14:48 38° 262° (W) 23:18:55 434.975-435.025
SPROUT 08 Feb 23:11:57 23:16:12 63° 73° (ENE) 23:20:28 437.525
TIGRISAT 08 Feb 23:14:20 23:18:28 46° 289° (WNW) 23:22:39 435.000
POPSAT HIP 1 08 Feb 23:20:24 23:24:32 54° 100° (E) 23:28:38 437.405
NANOSAT C BR1 08 Feb 23:25:51 23:30:02 61° 101° (ESE) 23:34:10 145.865
TISAT 1 08 Feb 23:26:03 23:29:54 35° 69° (ENE) 23:33:46 437.305
DUCHIFAT 1 08 Feb 23:27:50 23:32:00 62° 101° (ESE) 23:36:08 145.980
ITUPSAT 1 08 Feb 23:31:12 23:31:49 10° 54° (NE) 23:32:27 437.325
QB50P1 08 Feb 23:33:07 23:37:21 77° 103° (ESE) 23:41:32 145.935-145.965
BEESAT 08 Feb 23:38:59 23:40:58 13° 56° (NE) 23:42:56 436.000
Cosmos 2491 08 Feb 23:39:09 23:40:38 10° 45° (NE) 23:42:08 435.465 / 435.565
UNISAT 6 08 Feb 23:59:33 00:02:26 18° 297° (WNW) 00:05:20 437.425
VELOX 1 09 Feb 00:03:16 00:05:36 14° 270° (W) 00:07:58 145.980
BEESAT 3 09 Feb 00:11:46 00:13:53 14° 32° (NNE) 00:16:00 437.485
POLYITAN 1 09 Feb 00:25:40 00:29:22 30° 292° (WNW) 00:33:02 437.675
QB50P2 09 Feb 00:26:26 00:30:04 29° 293° (WNW) 00:33:43 145.880/145.840
SWISSCUBE 09 Feb 00:28:18 00:32:37 36° 67° (ENE) 00:36:59 437.505
BEESAT 2 09 Feb 00:33:44 00:36:04 15° 33° (NNE) 00:38:24 435.950
BUGSAT 1 09 Feb 00:34:49 00:38:43 45° 289° (WNW) 00:42:33 437.445
SPROUT 09 Feb 00:50:24 00:52:36 14° 271° (W) 00:54:48 437.525
POPSAT HIP 1 09 Feb 00:57:17 00:59:56 16° 298° (WNW) 01:02:33 437.405
TISAT 1 09 Feb 01:02:15 01:05:40 23° 266° (W) 01:09:04 437.305
NANOSAT C BR1 09 Feb 01:02:57 01:05:19 15° 299° (WNW) 01:07:41 145.865
ITUPSAT 1 09 Feb 01:04:02 01:08:46 69° 73° (ENE) 01:13:33 437.325
DUCHIFAT 1 09 Feb 01:04:54 01:07:15 15° 299° (WNW) 01:09:35 145.980
CUSAT 1 09 Feb 01:08:48 01:16:14 44° 90° (E) 01:23:41 437.405
PHONESAT 2.4 09 Feb 01:09:49 01:11:09 12° 155° (SSE) 01:12:30 2401.200-2431.200
QB50P1 09 Feb 01:10:46 01:12:33 12° 301° (WNW) 01:14:19 145.935-145.965
BEESAT 09 Feb 01:13:14 01:17:59 85° 77° (ENE) 01:22:48 436.000
JAS-2 09 Feb 01:23:41 01:29:07 40° 96° (E) 01:34:05 435.910
STARS 09 Feb 01:24:18 01:25:00 10° 56° (ENE) 01:25:42 437.465
Cosmos 2491 09 Feb 01:31:56 01:40:19 47° 72° (ENE) 01:48:39 435.465 / 435.565
DANDE 09 Feb 01:32:47 01:39:53 40° 87° (E) 01:47:36 436.750
Oscar 19 09 Feb 01:34:51 01:40:00 72° 103° (ESE) 01:45:07 437.125/150
KKS-1 09 Feb 01:35:11 01:38:40 23° 64° (ENE) 01:42:10 437.445
BEESAT 3 09 Feb 01:48:22 01:52:21 75° 53° (NE) 01:56:17 437.485
Gurwin Techsat 1B 09 Feb 01:56:59 02:02:06 45° 99° (E) 02:07:10 435.225
SWISSCUBE 09 Feb 02:06:22 02:10:29 29° 265° (W) 02:14:38 437.505
BEESAT 2 09 Feb 02:10:36 02:14:37 82° 51° (NE) 02:18:36 435.950
AIST 2 09 Feb 02:19:58 02:22:55 18° 36° (NE) 02:25:52 435.215
AO-7 09 Feb 02:22:11 02:27:15 17° 87° (E) 02:32:16 29.400- 29.500
YUBILEINY 09 Feb 02:25:45 02:33:33 38° 84° (E) 02:41:23 435.215
ITAMSAT 1 09 Feb 02:41:13 02:46:26 59° 102° (ESE) 02:51:34 435.822/435.867
ITUPSAT 1 09 Feb 02:44:24 02:47:07 15° 271° (W) 02:49:50 437.325
PHONESAT 2.4 09 Feb 02:44:59 02:47:49 27° 171° (S) 02:50:38 2401.200-2431.200
CUSAT 1 09 Feb 02:50:45 02:58:28 49° 289° (WNW) 03:06:12 437.405
Cosmos 2504 09 Feb 02:52:02 02:53:13 10° 67° (ENE) 02:54:26 435.465 / 435.565
BEESAT 09 Feb 02:54:43 02:56:26 12° 272° (W) 02:58:10 436.000
STARS 09 Feb 02:56:13 03:00:37 79° 74° (ENE) 03:05:01 437.465
MOZHAYETS 4 09 Feb 02:56:22 03:00:48 54° 72° (ENE) 03:05:18
JAS-2 09 Feb 03:09:00 03:14:06 32° 298° (WNW) 03:18:47 435.910
KKS-1 09 Feb 03:10:47 03:15:01 42° 261° (W) 03:19:16 437.445
DANDE 09 Feb 03:14:59 03:22:39 54° 288° (WNW) 03:31:00 436.750
Oscar 19 09 Feb 03:15:22 03:18:46 18° 301° (WNW) 03:22:10 437.125/150
BEESAT 3 09 Feb 03:28:01 03:29:32 12° 250° (WSW) 03:31:03 437.485
Cosmos 2491 09 Feb 03:29:01 03:37:06 44° 273° (W) 03:45:11 435.465 / 435.565
M-CUBED/EXP-1 PRIME 09 Feb 03:29:45 03:31:15 12° 98° (E) 03:32:49 437.505
CUBESAT XI-V 09 Feb 03:35:50 03:38:58 18° 61° (ENE) 03:42:06 437.345
Gurwin Techsat 1B 09 Feb 03:37:21 03:41:50 28° 297° (WNW) 03:46:19 435.225
AUBIESAT-1 09 Feb 03:40:09 03:42:03 14° 99° (E) 03:43:58 437.475
BEESAT 2 09 Feb 03:50:49 03:51:54 11° 251° (WSW) 03:52:57 435.950
AIST 2 09 Feb 03:57:46 04:01:55 75° 237° (WSW) 04:06:01 435.215
AO-7 09 Feb 04:12:57 04:21:21 79° 108° (ESE) 04:29:39 29.400- 29.500
SO-50 09 Feb 04:18:09 04:21:44 21° 111° (ESE) 04:25:21 436.795
YUBILEINY 09 Feb 04:21:28 04:30:01 55° 286° (WNW) 04:38:41 435.215
ITAMSAT 1 09 Feb 04:21:32 04:25:29 22° 300° (WNW) 04:29:25 435.822/435.867
PHONESAT 2.4 09 Feb 04:21:47 04:24:39 28° 188° (S) 04:27:30 2401.200-2431.200
HORYU 2 09 Feb 04:26:07 04:30:31 57° 101° (E) 04:34:54 437.375
MOZHAYETS 4 09 Feb 04:35:17 04:38:20 17° 270° (W) 04:41:23
Cosmos 2504 09 Feb 04:36:10 04:44:23 53° 89° (E) 04:52:57 435.465 / 435.565
STARS 09 Feb 04:36:11 04:37:33 11° 272° (W) 04:38:55 437.465
CUSAT 1 09 Feb 04:39:26 04:42:43 13° 310° (NW) 04:45:59 437.405
M-CUBED/EXP-1 PRIME 09 Feb 05:02:56 05:06:08 44° 293° (WNW) 05:09:29 437.505
DANDE 09 Feb 05:03:23 05:07:43 15° 311° (NW) 05:12:09 436.750
CUBESAT XI-V 09 Feb 05:11:14 05:15:52 62° 259° (WSW) 05:20:34 437.345
AUBIESAT-1 09 Feb 05:13:37 05:16:49 40° 294° (WNW) 05:20:09 437.475
STRAND 1 09 Feb 05:29:15 05:33:48 34° 66° (ENE) 05:38:24 437.568
PRISM 09 Feb 05:37:34 05:39:02 12° 58° (ENE) 05:40:28 437.425
CUTE-I 09 Feb 05:51:35 05:56:30 35° 96° (E) 06:01:24 437.470
SO-50 09 Feb 05:56:55 06:01:48 64° 310° (NW) 06:06:45 436.795
PHONESAT 2.4 09 Feb 05:59:37 06:01:19 13° 204° (SSW) 06:03:01 2401.200-2431.200
HORYU 2 09 Feb 06:03:44 06:06:41 18° 299° (WNW) 06:09:37 437.375
Cubesat XI-IV 09 Feb 06:04:52 06:10:03 45° 99° (E) 06:15:12 437.490
AO-7 09 Feb 06:06:33 06:13:22 29° 309° (NW) 06:20:09 29.400- 29.500
YUBILEINY 09 Feb 06:25:40 06:29:19 13° 311° (NW) 06:33:00 435.215
LilacSat-2 09 Feb 06:26:44 06:30:31 70° 102° (ESE) 06:34:17 437.200
GOMX 1 09 Feb 06:29:33 06:32:56 21° 91° (E) 06:36:10 467.674
Cosmos 2504 09 Feb 06:30:03 06:38:03 40° 291° (WNW) 06:46:21 435.465 / 435.565
BRITE-PL 09 Feb 06:56:32 07:01:27 78° 103° (ESE) 07:05:55 437.365/2234.400
O/OREOS (USA 219) 09 Feb 07:04:45 07:07:23 16° 99° (E) 07:10:02 437.305
STRAND 1 09 Feb 07:08:19 07:12:57 35° 264° (W) 07:17:39 437.568
PRISM 09 Feb 07:09:33 07:13:43 84° 256° (WSW) 07:17:56 437.425
CINEMA 3 09 Feb 07:17:36 07:18:38 11° 88° (E) 07:19:41 145.822/145.860
HO-68 09 Feb 07:23:00 07:28:50 26° 92° (E) 07:34:38 435.675
CUTE-I 09 Feb 07:31:40 07:36:32 36° 294° (WNW) 07:41:24 437.470
SO-50 09 Feb 07:40:03 07:43:16 17° 331° (NNW) 07:46:29 436.795
COMPASS 1 09 Feb 07:41:53 07:44:15 15° 90° (E) 07:46:37 437.405
Cubesat XI-IV 09 Feb 07:45:22 07:49:55 29° 297° (WNW) 07:54:27 437.490
CUTE 1.7 + AOD 2 09 Feb 07:45:44 07:49:25 28° 95° (E) 07:53:06 437.475
GONETS M04 09 Feb 07:51:25 07:58:37 31° 82° (E) 08:05:50
DOVE 4 09 Feb 07:52:01 07:56:20 75° 101° (ESE) 08:00:29 437.250
Cosmos 2499 09 Feb 07:52:50 07:56:26 13° 70° (ENE) 08:00:04 435.465 / 435.565
SEEDS 09 Feb 07:53:38 07:57:12 25° 94° (E) 08:00:46 437.485
LilacSat-2 09 Feb 08:03:11 08:04:18 11° 299° (WNW) 08:05:26 437.200
GOMX 1 09 Feb 08:07:02 08:11:17 40° 290° (WNW) 08:15:17 467.674
AAUSAT CUBESAT 2 09 Feb 08:10:31 08:13:57 24° 94° (E) 08:17:21 437.432
ZACube-1 09 Feb 08:28:00 08:29:44 12° 89° (E) 08:31:27 437.345
CANX-2 09 Feb 08:30:16 08:34:35 89° 285° (WNW) 08:38:53 2200.000
ANTELSAT 09 Feb 08:32:51 08:36:01 20° 64° (ENE) 08:39:10 437.575/2403.000
BRITE-PL 09 Feb 08:36:35 08:39:11 15° 303° (WNW) 08:41:42 437.365/2234.400
FUNcube-1 09 Feb 08:36:55 08:39:18 15° 90° (E) 08:41:42 145.935
TIGRISAT 09 Feb 08:39:47 08:43:08 23° 65° (ENE) 08:46:28 435.000
O/OREOS (USA 219) 09 Feb 08:41:50 08:46:16 60° 297° (WNW) 08:50:46 437.305
CINEMA 3 09 Feb 08:52:11 08:56:20 72° 285° (WNW) 09:00:28 145.822/145.860
CUBEBUG 2 09 Feb 09:04:09 09:08:17 56° 101° (E) 09:12:26 437.445
UWE-3 09 Feb 09:06:34 09:10:35 43° 99° (E) 09:14:39 435.000/436.395/437.385
Oscar 11 09 Feb 09:09:50 09:14:00 43° 98° (E) 09:18:08 145.826/435.025
HO-68 09 Feb 09:09:58 09:17:07 69° 291° (WNW) 09:24:14 435.675
COMPASS 1 09 Feb 09:16:02 09:20:12 57° 287° (WNW) 09:24:20 437.405
AO-85 09 Feb 09:19:22 09:22:22 15° 107° (ESE) 09:25:25 145.980
CUTE 1.7 + AOD 2 09 Feb 09:21:30 09:25:16 30° 292° (WNW) 09:29:01 437.475
UNISAT 6 09 Feb 09:23:03 09:27:20 64° 73° (ENE) 09:31:34 437.425
SEEDS 09 Feb 09:29:08 09:32:58 32° 291° (WNW) 09:36:45 437.485
DELFI C3 09 Feb 09:30:07 09:33:56 38° 98° (E) 09:37:43 145.870
DOVE 4 09 Feb 09:31:38 09:33:25 12° 302° (WNW) 09:35:12 437.250
Cosmos 2499 09 Feb 09:39:08 09:47:40 62° 92° (E) 09:56:24 435.465 / 435.565
POLYITAN 1 09 Feb 09:45:05 09:48:43 29° 67° (ENE) 09:52:23 437.675
AAUSAT CUBESAT 2 09 Feb 09:45:42 09:49:31 34° 291° (WNW) 09:53:19 437.432
QB50P2 09 Feb 09:45:43 09:49:24 30° 67° (ENE) 09:53:07 145.880/145.840
GONETS M04 09 Feb 09:46:11 09:54:48 65° 283° (WNW) 10:03:30
BUGSAT 1 09 Feb 09:52:45 09:55:37 18° 63° (ENE) 09:58:29 437.445
ZACube-1 09 Feb 10:02:17 10:06:28 68° 286° (WNW) 10:10:42 437.345
ANTELSAT 09 Feb 10:08:22 10:12:29 43° 261° (W) 10:16:35 437.575/2403.000
CANX-2 09 Feb 10:08:37 10:09:46 11° 302° (WNW) 10:10:55 2200.000
FUNcube-1 09 Feb 10:11:48 10:15:54 56° 287° (WNW) 10:20:04 145.935
POPSAT HIP 1 09 Feb 10:15:07 10:19:16 57° 72° (ENE) 10:23:25 437.405
VELOX 1 09 Feb 10:15:14 10:15:36 10° 87° (E) 10:15:57 145.980
TIGRISAT 09 Feb 10:15:37 10:19:39 38° 262° (W) 10:23:39 435.000
NANOSAT C BR1 09 Feb 10:20:13 10:24:24 63° 73° (ENE) 10:28:35 145.865
DUCHIFAT 1 09 Feb 10:21:58 10:26:08 63° 73° (ENE) 10:30:19 145.980
O/OREOS (USA 219) 09 Feb 10:26:09 10:26:41 10° 319° (NW) 10:27:13 437.305
HUMSAT D 09 Feb 10:27:02 10:31:12 69° 102° (ESE) 10:35:23 437.325/437.525
QB50P1 09 Feb 10:27:44 10:31:58 79° 75° (ENE) 10:36:13 145.935-145.965
AISAT 09 Feb 10:29:42 10:32:25 16° 91° (E) 10:35:05 437.250
PCSat 09 Feb 10:30:52 10:35:47 37° 112° (ESE) 10:40:44 145.827
CUBEBUG 2 09 Feb 10:42:00 10:44:31 16° 298° (WNW) 10:47:04 437.445
UWE-3 09 Feb 10:43:47 10:46:49 20° 296° (WNW) 10:49:52 435.000/436.395/437.385
UKube-1 09 Feb 10:45:57 10:49:09 20° 93° (E) 10:52:19 .
Oscar 11 09 Feb 10:46:35 10:49:52 21° 296° (WNW) 10:53:08 145.826/435.025
ESTCUBE 1 09 Feb 10:47:58 10:51:51 27° 95° (E) 10:55:42 437.505/2401.250
AIST 1 09 Feb 10:48:16 10:52:40 88° 98° (E) 10:57:07
CUBEBUG 1 09 Feb 10:50:53 10:54:14 21° 93° (E) 10:57:33 437.445
RS-15 09 Feb 10:52:35 11:02:39 42° 108° (ESE) 11:13:12 29.354- 29.394
DX 1 09 Feb 10:56:19 11:00:09 29° 96° (E) 11:03:57 434.975-435.025
AO-85 09 Feb 10:56:43 11:02:08 87° 124° (SE) 11:07:40 145.980
HO-68 09 Feb 10:59:22 11:03:36 17° 312° (NW) 11:07:49 435.675
UNISAT 6 09 Feb 11:02:22 11:04:29 13° 270° (W) 11:06:35 437.425
DELFI C3 09 Feb 11:05:36 11:08:37 21° 295° (WNW) 11:11:38 145.870
SO-50 09 Feb 11:06:35 11:08:42 13° 21° (NNE) 11:10:48 436.795
Oscar 19 09 Feb 11:16:47 11:20:31 21° 60° (ENE) 11:24:16 437.125/150
POLYITAN 1 09 Feb 11:20:50 11:24:31 29° 264° (W) 11:28:13 437.675
QB50P2 09 Feb 11:21:34 11:25:13 27° 265° (W) 11:28:52 145.880/145.840
50 SAT 09 Feb 11:25:09 11:28:57 72° 102° (ESE) 11:32:45 437.505
BUGSAT 1 09 Feb 11:26:36 11:30:41 48° 260° (W) 11:34:45 437.445
Cosmos 2499 09 Feb 11:33:29 11:41:20 35° 293° (WNW) 11:49:19 435.465 / 435.565
JAS-2 09 Feb 11:37:15 11:43:38 31° 62° (ENE) 11:49:33 435.910
Gurwin Techsat 1B 09 Feb 11:43:46 11:46:41 15° 56° (NE) 11:49:36 435.225
CUSAT 1 09 Feb 11:44:22 11:49:52 30° 63° (ENE) 11:54:13 437.405
VELOX 1 09 Feb 11:48:15 11:52:43 87° 284° (WNW) 11:57:08 145.980
GONETS M04 09 Feb 11:48:55 11:53:41 15° 308° (NW) 11:58:30
POPSAT HIP 1 09 Feb 11:53:01 11:55:25 15° 270° (W) 11:57:50 437.405
NANOSAT C BR1 09 Feb 11:58:32 12:00:34 13° 270° (W) 12:02:37 145.865
DUCHIFAT 1 09 Feb 12:00:14 12:02:17 13° 270° (W) 12:04:18 145.980
HUMSAT D 09 Feb 12:04:19 12:06:20 13° 299° (WNW) 12:08:21 437.325/437.525
AISAT 09 Feb 12:04:56 12:09:16 56° 288° (WNW) 12:13:35 437.250
QB50P1 09 Feb 12:07:23 12:08:18 11° 272° (W) 12:09:13 145.935-145.965
DANDE 09 Feb 12:11:42 12:18:24 34° 64° (ENE) 12:23:45 436.750
PCSat 09 Feb 12:14:03 12:19:09 40° 312° (NW) 12:24:18 145.827
UKube-1 09 Feb 12:21:18 12:25:25 43° 290° (WNW) 12:29:30 .
ESTCUBE 1 09 Feb 12:24:35 12:28:43 35° 292° (WNW) 12:32:50 437.505/2401.250
ITAMSAT 1 09 Feb 12:24:36 12:28:03 18° 58° (ENE) 12:31:31 435.822/435.867
CUBEBUG 1 09 Feb 12:26:35 12:30:43 41° 290° (WNW) 12:34:47 437.445
AIST 1 09 Feb 12:30:01 12:30:58 11° 297° (WNW) 12:31:57
SPROUT 09 Feb 12:31:25 12:35:43 87° 110° (ESE) 12:39:58 437.525
YUBILEINY 09 Feb 12:32:18 12:38:50 22° 58° (ENE) 12:45:19 435.215
DX 1 09 Feb 12:32:30 12:36:19 30° 294° (WNW) 12:40:06 434.975-435.025
AO-85 09 Feb 12:38:57 12:43:23 24° 326° (NW) 12:47:49 145.980
TISAT 1 09 Feb 12:42:49 12:46:49 43° 99° (E) 12:50:47 437.305
SO-50 09 Feb 12:46:00 12:50:35 39° 44° (NE) 12:55:01 436.795
Oscar 19 09 Feb 12:54:15 12:59:23 63° 258° (WSW) 13:04:33 437.125/150
50 SAT 09 Feb 13:01:21 13:02:27 11° 300° (WNW) 13:03:32 437.505
RS-15 09 Feb 13:03:17 13:14:28 68° 314° (NW) 13:26:21 29.354- 29.394
ITUPSAT 1 09 Feb 13:03:24 13:06:06 15° 89° (E) 13:08:47 437.325
BEESAT 09 Feb 13:11:48 13:15:04 18° 91° (E) 13:18:21 436.000
Gurwin Techsat 1B 09 Feb 13:20:33 13:25:52 88° 76° (ENE) 13:31:14 435.225
JAS-2 09 Feb 13:20:43 13:28:18 63° 259° (W) 13:35:15 435.910
AO-7 09 Feb 13:23:22 13:30:36 34° 54° (NE) 13:37:51 29.400- 29.500
CUSAT 1 09 Feb 13:26:40 13:32:23 40° 271° (W) 13:36:47 437.405
VELOX 1 09 Feb 13:27:05 13:28:29 11° 303° (WNW) 13:29:53 145.980
DANDE 09 Feb 13:54:42 14:01:40 48° 270° (W) 14:07:04 436.750
ITAMSAT 1 09 Feb 14:01:47 14:06:58 73° 257° (WSW) 14:12:12 435.822/435.867
PCSat 09 Feb 14:01:56 14:04:07 12° 335° (NNW) 14:06:18 145.827
SWISSCUBE 09 Feb 14:03:03 14:07:50 60° 101° (ESE) 14:12:34 437.505
SPROUT 09 Feb 14:09:40 14:11:02 11° 302° (WNW) 14:12:23 437.525
M-CUBED/EXP-1 PRIME 09 Feb 14:18:30 14:21:36 28° 64° (ENE) 14:24:33 437.505
TISAT 1 09 Feb 14:19:11 14:22:13 20° 296° (WNW) 14:25:15 437.305
AO-85 09 Feb 14:24:21 14:25:54 11° 349° (N) 14:27:27 145.980
Cosmos 2504 09 Feb 14:26:27 14:33:13 24° 60° (ENE) 14:39:40 435.465 / 435.565
SO-50 09 Feb 14:26:41 14:31:01 34° 244° (WSW) 14:35:13 436.795
YUBILEINY 09 Feb 14:28:08 14:37:03 87° 82° (E) 14:45:54 435.215
AUBIESAT-1 09 Feb 14:28:41 14:31:50 30° 64° (ENE) 14:34:51 437.475
Cosmos 2491 09 Feb 14:36:19 14:44:31 48° 88° (E) 14:52:44 435.465 / 435.565
ITUPSAT 1 09 Feb 14:39:38 14:44:28 71° 287° (WNW) 14:49:15 437.325
STARS 09 Feb 14:45:15 14:46:52 12° 89° (E) 14:48:27 437.465
BEESAT 09 Feb 14:48:31 14:53:14 57° 289° (WNW) 14:57:56 436.000
MOZHAYETS 4 09 Feb 14:51:19 14:52:29 11° 87° (E) 14:53:39
KKS-1 09 Feb 14:59:11 15:03:06 30° 96° (E) 15:06:59 437.445
Gurwin Techsat 1B 09 Feb 15:04:06 15:06:33 13° 273° (W) 15:09:01 435.225
JAS-2 09 Feb 15:11:49 15:14:26 12° 276° (W) 15:16:58 435.910
AO-7 09 Feb 15:14:33 15:22:52 67° 255° (WSW) 15:31:15 29.400- 29.500
ISS 09 Feb 15:19:11 15:21:13 16° 135° (SE) 15:23:15 145.825
RS-15 09 Feb 15:19:26 15:29:38 34° 345° (NNW) 15:40:18 29.354- 29.394
HORYU 2 09 Feb 15:26:26 15:30:50 73° 73° (ENE) 15:35:15 437.375
CUTE-I 09 Feb 15:39:52 15:42:01 12° 53° (NE) 15:44:10 437.470
SWISSCUBE 09 Feb 15:41:50 15:45:12 19° 299° (WNW) 15:48:33 437.505
Cubesat XI-IV 09 Feb 15:52:19 15:55:25 16° 56° (NE) 15:58:31 437.490
M-CUBED/EXP-1 PRIME 09 Feb 15:53:27 15:56:17 21° 258° (WSW) 15:59:00 437.505
AUBIESAT-1 09 Feb 16:03:47 16:06:28 20° 259° (W) 16:09:04 437.475
AO-85 09 Feb 16:06:53 16:08:55 12° 14° (NNE) 16:10:55 145.980
Cosmos 2504 09 Feb 16:19:05 16:27:51 86° 263° (W) 16:36:00 435.465 / 435.565
STARS 09 Feb 16:19:23 16:23:46 75° 286° (WNW) 16:28:07 437.465
ITUPSAT 1 09 Feb 16:20:25 16:21:26 11° 306° (NW) 16:22:26 437.325
MOZHAYETS 4 09 Feb 16:25:38 16:30:19 88° 284° (WNW) 16:34:58
YUBILEINY 09 Feb 16:26:28 16:32:40 22° 283° (WNW) 16:38:51 435.215
BRITE-PL 09 Feb 16:32:14 16:36:09 20° 61° (ENE) 16:40:00 437.365/2234.400
Cosmos 2491 09 Feb 16:33:21 16:41:28 42° 290° (WNW) 16:49:40 435.465 / 435.565
KKS-1 09 Feb 16:35:46 16:39:39 30° 293° (WNW) 16:43:31 437.445
ISS 09 Feb 16:54:01 16:57:17 87° 333° (NNW) 17:00:33 145.825
CUBESAT XI-V 09 Feb 17:05:36 17:09:39 28° 94° (E) 17:13:40 437.345
HORYU 2 09 Feb 17:06:03 17:07:55 12° 271° (W) 17:09:47 437.375
O/OREOS (USA 219) 09 Feb 17:10:00 17:14:27 47° 60° (ENE) 17:18:54 437.305
LilacSat-2 09 Feb 17:11:05 17:14:45 48° 73° (ENE) 17:18:27 437.200
AO-7 09 Feb 17:13:27 17:17:14 14° 275° (W) 17:21:02 29.400- 29.500
CUTE-I 09 Feb 17:15:51 17:21:08 72° 72° (ENE) 17:26:29 437.470
BEESAT 3 09 Feb 17:19:02 17:22:57 58° 122° (ESE) 17:26:53 437.485
DOVE 4 09 Feb 17:24:17 17:27:00 15° 60° (ENE) 17:29:39 437.250
Cubesat XI-IV 09 Feb 17:29:26 17:34:46 88° 255° (WSW) 17:40:10 437.490
PCSat 09 Feb 17:33:24 17:36:22 15° 29° (NNE) 17:39:21 145.827
RS-15 09 Feb 17:35:51 17:46:31 35° 19° (NNE) 17:57:28 29.354- 29.394
GOMX 1 09 Feb 17:38:50 17:43:41 36° 68° (ENE) 17:48:21 467.674
BEESAT 2 09 Feb 17:42:33 17:46:33 66° 122° (ESE) 17:50:33 435.950
AO-85 09 Feb 17:46:36 17:51:15 29° 38° (NE) 17:55:35 145.980
CANX-2 09 Feb 17:53:25 17:54:16 11° 58° (ENE) 17:55:08 2200.000
HO-68 09 Feb 17:54:50 18:00:37 27° 56° (NE) 18:06:26 435.675
GONETS M04 09 Feb 17:57:37 18:03:17 18° 55° (NE) 18:08:56
AIST 2 09 Feb 18:00:09 18:01:45 12° 109° (ESE) 18:03:21 435.215
MOZHAYETS 4 09 Feb 18:04:55 18:06:46 12° 302° (WNW) 18:08:38
BRITE-PL 09 Feb 18:08:22 18:14:04 76° 258° (WSW) 18:19:38 437.365/2234.400
Cosmos 2504 09 Feb 18:14:17 18:19:49 19° 285° (WNW) 18:25:11 435.465 / 435.565
CINEMA 3 09 Feb 18:20:49 18:23:42 17° 63° (ENE) 18:26:31 145.822/145.860
ISS 09 Feb 18:31:03 18:34:01 31° 352° (N) 18:36:59 145.825
COMPASS 1 09 Feb 18:35:42 18:38:01 15° 61° (ENE) 18:40:21 437.405
CUTE 1.7 + AOD 2 09 Feb 18:40:59 18:44:32 27° 67° (ENE) 18:48:08 437.475
CUBESAT XI-V 09 Feb 18:42:48 18:47:06 36° 292° (WNW) 18:51:21 437.345
LilacSat-2 09 Feb 18:47:18 18:49:22 14° 270° (W) 18:51:26 437.200
SEEDS 09 Feb 18:48:02 18:51:27 25° 66° (ENE) 18:54:53 437.485
O/OREOS (USA 219) 09 Feb 18:50:08 18:53:32 21° 258° (WSW) 18:56:56 437.305
PRISM 09 Feb 18:51:06 18:52:24 11° 89° (E) 18:53:41 437.425
BEESAT 3 09 Feb 18:58:00 19:01:03 20° 321° (NW) 19:04:06 437.485
CUTE-I 09 Feb 18:58:24 19:01:45 17° 271° (W) 19:05:07 437.470
DOVE 4 09 Feb 18:59:02 19:04:09 83° 259° (W) 19:09:00 437.250
AAUSAT CUBESAT 2 09 Feb 19:03:32 19:06:47 23° 65° (ENE) 19:10:03 437.432
Cubesat XI-IV 09 Feb 19:13:24 19:15:37 13° 273° (W) 19:17:51 437.490
STRAND 1 09 Feb 19:15:30 19:20:40 66° 102° (ESE) 19:25:47 437.568
PCSat 09 Feb 19:15:44 19:21:04 53° 51° (NE) 19:26:22 145.827
GOMX 1 09 Feb 19:16:50 19:21:44 35° 264° (W) 19:26:28 467.674
BEESAT 2 09 Feb 19:21:54 19:24:51 19° 323° (NW) 19:27:48 435.950
CANX-2 09 Feb 19:25:14 19:29:27 88° 66° (ENE) 19:33:42 2200.000
ZACube-1 09 Feb 19:26:32 19:28:47 14° 61° (ENE) 19:31:01 437.345
AO-85 09 Feb 19:27:02 19:32:08 56° 240° (WSW) 19:36:47 145.980
Cosmos 2499 09 Feb 19:28:25 19:35:23 27° 62° (ENE) 19:41:55 435.465 / 435.565
FUNcube-1 09 Feb 19:35:16 19:37:55 17° 63° (ENE) 19:40:33 145.935
AIST 2 09 Feb 19:35:28 19:39:38 81° 305° (NW) 19:43:50 435.215
HO-68 09 Feb 19:40:35 19:47:44 72° 255° (WSW) 19:54:58 435.675
RS-15 09 Feb 19:49:21 20:01:30 73° 49° (NE) 20:13:50 29.354- 29.394
BRITE-PL 09 Feb 19:51:24 19:53:20 12° 275° (W) 19:55:15 437.365/2234.400
GONETS M04 09 Feb 19:53:02 20:01:52 74° 79° (E) 20:10:42
CINEMA 3 09 Feb 19:55:53 20:00:27 60° 259° (W) 20:04:51 145.822/145.860
CUBEBUG 2 09 Feb 20:04:34 20:08:50 64° 74° (ENE) 20:13:01 437.445
UWE-3 09 Feb 20:05:59 20:10:04 48° 72° (ENE) 20:14:06 435.000/436.395/437.385
Oscar 11 09 Feb 20:06:51 20:10:56 45° 71° (ENE) 20:15:04 145.826/435.025
ISS 09 Feb 20:07:58 20:11:00 35° 12° (NNE) 20:14:01 145.825
COMPASS 1 09 Feb 20:09:01 20:13:07 61° 259° (W) 20:17:16 437.405
CUTE 1.7 + AOD 2 09 Feb 20:16:37 20:20:19 30° 264° (W) 20:24:04 437.475
DELFI C3 09 Feb 20:18:54 20:22:27 32° 69° (ENE) 20:26:02 145.870
SEEDS 09 Feb 20:23:16 20:27:03 33° 264° (W) 20:30:52 437.485
PRISM 09 Feb 20:24:03 20:28:14 73° 287° (WNW) 20:32:23 437.425
AAUSAT CUBESAT 2 09 Feb 20:38:18 20:42:06 36° 263° (W) 20:45:58 437.432
DOVE 4 09 Feb 20:41:24 20:42:28 11° 273° (W) 20:43:32 437.250
AIST 1 09 Feb 20:53:05 20:56:52 28° 72° (ENE) 21:00:36
STRAND 1 09 Feb 20:55:43 20:59:21 20° 300° (WNW) 21:02:57 437.568
PCSat 09 Feb 20:59:40 21:04:10 27° 251° (WSW) 21:08:37 145.827
ZACube-1 09 Feb 21:00:27 21:04:37 63° 259° (WSW) 21:08:46 437.345
FUNcube-1 09 Feb 21:09:43 21:13:49 52° 260° (W) 21:17:53 145.935
VELOX 1 09 Feb 21:13:53 21:16:19 15° 59° (ENE) 21:18:44 145.980
UNISAT 6 09 Feb 21:14:38 21:15:36 11° 88° (E) 21:16:33 437.425
AIST 2 09 Feb 21:16:16 21:18:49 16° 327° (NNW) 21:21:22 435.215
HUMSAT D 09 Feb 21:20:42 21:24:45 65° 73° (ENE) 21:28:48 437.325/437.525
Cosmos 2499 09 Feb 21:21:00 21:29:29 75° 265° (W) 21:37:18 435.465 / 435.565
AISAT 09 Feb 21:29:26 21:32:47 21° 63° (ENE) 21:36:07 437.250
HO-68 09 Feb 21:33:29 21:36:43 13° 275° (W) 21:39:58 435.675
UKube-1 09 Feb 21:42:55 21:46:25 24° 65° (ENE) 21:49:55 .
CUBEBUG 2 09 Feb 21:43:50 21:45:53 13° 270° (W) 21:47:54 437.445
UWE-3 09 Feb 21:44:01 21:46:48 17° 269° (W) 21:49:35 435.000/436.395/437.385
Oscar 11 09 Feb 21:44:16 21:47:18 19° 268° (W) 21:50:23 145.826/435.025
ISS 09 Feb 21:44:24 21:47:38 68° 212° (SSW) 21:50:51 145.825
CUBEBUG 1 09 Feb 21:49:11 21:52:50 25° 65° (ENE) 21:56:29 437.445
ESTCUBE 1 09 Feb 21:49:49 21:53:52 34° 68° (ENE) 21:57:59 437.505/2401.250
GONETS M04 09 Feb 21:50:57 21:57:50 27° 280° (W) 22:04:45
DX 1 09 Feb 21:54:04 21:58:05 36° 68° (ENE) 22:02:05 434.975-435.025
DELFI C3 09 Feb 21:54:15 21:57:26 23° 266° (W) 22:00:38 145.870
SPROUT 09 Feb 21:54:59 21:56:16 11° 58° (ENE) 21:57:33 437.525
ANTELSAT 09 Feb 21:57:18 22:01:08 30° 96° (E) 22:04:59 437.575/2403.000
RS-15 09 Feb 22:02:27 22:13:17 40° 253° (WSW) 22:24:15 29.354- 29.394
TIGRISAT 09 Feb 22:04:09 22:08:05 33° 97° (E) 22:12:03 435.000
50 SAT 09 Feb 22:07:42 22:11:17 49° 73° (ENE) 22:14:54 437.505
QB50P1 09 Feb 22:12:54 22:13:34 10° 88° (E) 22:14:15 145.935-145.965
AIST 1 09 Feb 22:30:42 22:34:26 28° 271° (W) 22:38:08
VELOX 1 09 Feb 22:47:46 22:52:14 73° 257° (WSW) 22:56:43 145.980
UNISAT 6 09 Feb 22:48:32 22:52:52 81° 285° (WNW) 22:57:17 437.425
HUMSAT D 09 Feb 22:59:18 23:00:51 12° 271° (W) 23:02:24 437.325/437.525
